Weather History for Galliano, LA

Change the Weather History Date:

Monday, December 10, 2012

  Actual Average (KAXO) Record (KAXO)
Temperature  
Mean Temperature 66 °F -  
Max Temperature 78 °F 59 °F 80 °F (2007)
Min Temperature 53 °F 55 °F 48 °F (2003)
Growing Degree Days 16 (Base 50)    
Moisture  
Dew Point 62 °F    
Average Humidity 94    
Maximum Humidity 100    
Minimum Humidity 74    
Precipitation  
Precipitation 0.09 in - - ()
Sea Level Pressure  
Sea Level Pressure 29.88 in    
Wind  
Wind Speed 11 mph (SW)    
Max Wind Speed 18 mph    
Max Gust Speed 28 mph    
Visibility 10 miles    
Events Rain , Thunderstorm    
Averages and records for this station are not official NWS values.
T = Trace of Precipitation, MM = Missing Value Source: NWS Daily Summary

Daily Weather History Graph

Daily Weather History Graph

Search for Another Location

Airport:

Trip Planner

Search our weather history database for the weather conditions in past years. The results will help you decide how hot, cold, wet, or windy it might be!

Date:

Astronomy

Dec. 10, 2012 Rise Set
Actual Time 6:45 AM CST 5:03 PM CST
Civil Twilight 6:19 AM CST 5:29 PM CST
Nautical Twilight 5:49 AM CST 5:58 PM CST
Astronomical Twilight 5:20 AM CST 6:27 PM CST
Moon 3:37 AM CST (12/10) 2:45 PM CST (12/10)
Length of Visible Light 11h 10m
Length of Day
10h 17m
Waning Crescent, 10% of the Moon is Illuminated
Dec 10
Waning Crescent
Dec 13
New
Dec 19
First Quarter
Dec 28
Full
Jan 4
Last Quarter

Hourly Weather History & Observations

Time (CST) Temp. Dew Point Humidity Pressure Visibility Wind Dir Wind Speed Gust Speed Precip Events Conditions
12:15 AM 66.2 °F 66.2 °F 100% 29.92 in 10.0 mi SSE 8.1 mph - N/A   Scattered Clouds
12:35 AM 66.2 °F 66.2 °F 100% 29.91 in 10.0 mi SSE 10.4 mph - N/A   Mostly Cloudy
12:55 AM 66.2 °F 66.2 °F 100% 29.91 in 10.0 mi SSE 10.4 mph - N/A   Scattered Clouds
1:15 AM 66.2 °F 66.2 °F 100% 29.90 in 10.0 mi SSE 9.2 mph - N/A   Scattered Clouds
1:35 AM 66.2 °F 66.2 °F 100% 29.89 in 10.0 mi SSE 10.4 mph - N/A   Scattered Clouds
1:55 AM 66.2 °F 66.2 °F 100% 29.89 in 10.0 mi South 9.2 mph - N/A   Scattered Clouds
2:15 AM 66.2 °F 66.2 °F 100% 29.88 in 10.0 mi SSE 10.4 mph - N/A   Scattered Clouds
2:55 AM 66.2 °F 66.2 °F 100% 29.86 in 10.0 mi SE 11.5 mph - N/A   Clear
3:15 AM 66.2 °F 66.2 °F 100% 29.86 in 10.0 mi SSE 11.5 mph - N/A   Scattered Clouds
3:35 AM 66.2 °F 66.2 °F 100% 29.85 in 10.0 mi SSE 10.4 mph - N/A   Scattered Clouds
3:55 AM 66.2 °F 66.2 °F 100% 29.84 in 10.0 mi SSE 11.5 mph - N/A   Unknown
4:15 AM 66.2 °F 66.2 °F 100% 29.84 in 10.0 mi SSE 12.7 mph 17.3 mph N/A   Unknown
4:35 AM 66.2 °F 66.2 °F 100% 29.83 in 10.0 mi SSE 11.5 mph - N/A   Unknown
4:55 AM 66.2 °F 66.2 °F 100% 29.81 in 10.0 mi SSE 11.5 mph 18.4 mph N/A   Unknown
5:15 AM 66.2 °F 66.2 °F 100% 29.81 in 10.0 mi SSE 11.5 mph - N/A   Unknown
5:35 AM 66.2 °F 66.2 °F 100% 29.81 in 10.0 mi SSE 10.4 mph - N/A   Unknown
5:55 AM 66.2 °F 66.2 °F 100% 29.81 in 10.0 mi SSE 9.2 mph - N/A   Unknown
6:15 AM 66.2 °F 66.2 °F 100% 29.83 in 10.0 mi South 10.4 mph - N/A   Unknown
6:35 AM 68.0 °F 68.0 °F 100% 29.84 in 10.0 mi South 9.2 mph 16.1 mph N/A   Unknown
6:55 AM 68.0 °F 68.0 °F 100% 29.85 in 10.0 mi South 8.1 mph - N/A   Unknown
7:15 AM 68.0 °F 68.0 °F 100% 29.85 in 10.0 mi South 8.1 mph - N/A   Unknown
7:35 AM 68.0 °F 68.0 °F 100% 29.85 in 10.0 mi South 8.1 mph - N/A   Unknown
7:55 AM 68.0 °F 68.0 °F 100% 29.85 in 10.0 mi South 9.2 mph - N/A   Unknown
8:15 AM 69.8 °F 69.8 °F 100% 29.85 in 10.0 mi South 5.8 mph - N/A   Scattered Clouds
8:35 AM 73.4 °F 73.4 °F 100% 29.86 in 10.0 mi South 9.2 mph - N/A   Scattered Clouds
8:55 AM 73.4 °F 73.4 °F 100% 29.86 in 10.0 mi South 9.2 mph 17.3 mph N/A   Scattered Clouds
9:15 AM 77.0 °F 73.4 °F 89% 29.86 in 10.0 mi South 13.8 mph 17.3 mph N/A   Scattered Clouds
9:35 AM 77.0 °F 71.6 °F 83% 29.86 in 10.0 mi South 13.8 mph 20.7 mph N/A   Clear
9:55 AM 77.0 °F 71.6 °F 83% 29.85 in 10.0 mi South 16.1 mph 21.9 mph N/A   Unknown
10:15 AM 77.0 °F 71.6 °F 83% 29.85 in 10.0 mi South 18.4 mph 26.5 mph N/A   Unknown
10:35 AM 78.8 °F 69.8 °F 74% 29.84 in 10.0 mi South 16.1 mph 25.3 mph N/A   Unknown
10:55 AM 78.8 °F 69.8 °F 74% 29.84 in 10.0 mi South 13.8 mph 27.6 mph N/A   Unknown
11:15 AM 78.8 °F 69.8 °F 74% 29.85 in 10.0 mi South 15.0 mph 24.2 mph N/A   Unknown
11:35 AM 78.8 °F 69.8 °F 74% 29.83 in 10.0 mi South 13.8 mph 24.2 mph N/A   Unknown
12:15 PM 68.0 °F 66.2 °F 94% 29.84 in 4.0 mi SW 10.4 mph 19.6 mph 0.05 in Rain Rain
12:35 PM 66.2 °F 66.2 °F 100% 29.83 in 10.0 mi North - - 0.08 in Rain , Thunderstorm Light Thunderstorms and Rain
12:55 PM 68.0 °F 68.0 °F 100% 29.84 in 10.0 mi SW 6.9 mph - 0.09 in   Light Drizzle
1:15 PM 68.0 °F 68.0 °F 100% 29.82 in 10.0 mi SW 4.6 mph - N/A   Unknown
1:35 PM 66.2 °F 66.2 °F 100% 29.83 in 10.0 mi WNW 13.8 mph - N/A Rain Light Rain
1:55 PM 64.4 °F 64.4 °F 100% 29.82 in 10.0 mi NW 11.5 mph 16.1 mph N/A   Unknown
2:15 PM 62.6 °F 62.6 °F 100% 29.82 in 10.0 mi WNW 11.5 mph 19.6 mph N/A   Unknown
2:35 PM 62.6 °F 62.6 °F 100% 29.83 in 10.0 mi WNW 8.1 mph - N/A   Unknown
2:55 PM 62.6 °F 62.6 °F 100% 29.82 in 10.0 mi NNW 8.1 mph - N/A   Unknown
3:15 PM 62.6 °F 62.6 °F 100% 29.83 in 10.0 mi NW 10.4 mph - N/A   Mostly Cloudy
3:35 PM 62.6 °F 60.8 °F 94% 29.84 in 10.0 mi NW 15.0 mph - N/A   Scattered Clouds
3:55 PM 62.6 °F 60.8 °F 94% 29.84 in 10.0 mi NW 12.7 mph - N/A   Clear
4:15 PM 60.8 °F 60.8 °F 100% 29.86 in 10.0 mi NW 11.5 mph - N/A   Unknown
4:35 PM 60.8 °F 59.0 °F 94% 29.87 in 10.0 mi NW 12.7 mph 20.7 mph N/A   Unknown
4:55 PM 60.8 °F 59.0 °F 94% 29.88 in 10.0 mi NW 11.5 mph 16.1 mph N/A   Unknown
5:15 PM 59.0 °F 59.0 °F 100% 29.88 in 10.0 mi WNW 12.7 mph 16.1 mph N/A   Unknown
5:35 PM 59.0 °F 57.2 °F 94% 29.89 in 10.0 mi NW 13.8 mph 18.4 mph N/A   Unknown
5:55 PM 59.0 °F 57.2 °F 94% 29.89 in 10.0 mi NW 13.8 mph 17.3 mph N/A   Unknown
6:15 PM 59.0 °F 57.2 °F 94% 29.90 in 10.0 mi WNW 15.0 mph - N/A   Unknown
6:35 PM 57.2 °F 55.4 °F 94% 29.90 in 10.0 mi NW 16.1 mph - N/A   Unknown
6:55 PM 55.4 °F 55.4 °F 100% 29.91 in 10.0 mi NW 15.0 mph 19.6 mph N/A   Unknown
7:15 PM 55.4 °F 53.6 °F 94% 29.92 in 10.0 mi NW 11.5 mph - N/A   Unknown
7:35 PM 55.4 °F 53.6 °F 94% 29.92 in 10.0 mi NW 11.5 mph - N/A   Unknown
7:55 PM 55.4 °F 53.6 °F 94% 29.94 in 10.0 mi NW 12.7 mph - N/A   Unknown
8:15 PM 55.4 °F 51.8 °F 88% 29.95 in 10.0 mi NW 9.2 mph - N/A   Unknown
8:55 PM 55.4 °F 51.8 °F 88% 29.95 in 10.0 mi NW 12.7 mph 19.6 mph N/A   Unknown
9:15 PM 53.6 °F 50.0 °F 88% 29.96 in 10.0 mi NNW 16.1 mph - N/A   Unknown
9:35 PM 53.6 °F 50.0 °F 88% 29.97 in 10.0 mi NW 15.0 mph 21.9 mph N/A   Unknown
9:55 PM 53.6 °F 50.0 °F 88% 29.97 in 10.0 mi NW 10.4 mph 18.4 mph N/A   Unknown
10:15 PM 53.6 °F 50.0 °F 88% 29.98 in 10.0 mi NW 11.5 mph - N/A   Unknown
10:35 PM 53.6 °F 50.0 °F 88% 29.98 in 10.0 mi NNW 9.2 mph 19.6 mph N/A   Unknown
10:55 PM 53.6 °F 48.2 °F 82% 29.98 in 10.0 mi NNW 13.8 mph - N/A   Unknown
11:15 PM 53.6 °F 48.2 °F 82% 29.98 in 10.0 mi NNW 16.1 mph 19.6 mph N/A   Unknown
11:35 PM 53.6 °F 46.4 °F 77% 29.97 in 10.0 mi NNW 15.0 mph 21.9 mph N/A   Unknown
11:55 PM 53.6 °F 46.4 °F 77% 29.99 in 10.0 mi NNW 13.8 mph 19.6 mph N/A   Unknown